Location: *
(12.5665°N, 8.3471°E)
Time: 10:46:56
(UTC+00:00)

Cosmos 2227 Rocket - Pass Details

Date: 23 September 2019
Orbit: 837 x 847 km, 71.0° (Epoch: 18 October)

Event Time Altitude Azimuth Distance (km) Brightness Sun altitude
Rises 04:45:46 0° 355° (N) 3,397 5.3 -8.1°
Reaches altitude 10° 04:48:20 10° 2° (N) 2,462 4.7 -7.5°
Maximum altitude 04:53:41 43° 73° (ENE) 1,164 3.6 -6.2°
Drops below altitude 10° 04:59:00 10° 143° (SE) 2,458 5.2 -4.9°
Sets 05:01:33 0° 150° (SSE) 3,391 5.8 -4.3°
